Location: Lower Kingswood
(51.2667°N, 0.2167°W)
Time: 13:12:20
(UTC+00:00)

Cosmos 1428 Rocket - Pass Details

Date: 26 September 2023
Orbit: 948 x 987 km, 82.9° (Epoch: 28 November)

Event Time Altitude Azimuth Distance (km) Brightness Sun altitude
Exits shadow 02:16:42 74° 49° (NE) 990 4.5 -31.4°
Drops below altitude 10° 02:22:24 10° 12° (NNE) 2,695 7.5 -30.8°
Sets 02:24:55 0° 11° (NNE) 3,649 8.3 -30.5°
